Hourly Weather Craiova

Today, 24 July, Saturday

Time Temperature Precipitation Wind Pressure Humidity
00:00 +24°C° 0 mm 2 mps 751 mmHg 49%
01:00 +24°C° 0 mm 1 mps 751 mmHg 50%
02:00 +23°C° 0 mm 1 mps 751 mmHg 53%
03:00 +22°C° 0.1 mm 1 mps 751 mmHg 57%
04:00 +21°C° 0.1 mm 2 mps 751 mmHg 61%
05:00 +20°C° 0.1 mm 2 mps 751 mmHg 66%
06:00 +21°C° 0.1 mm 2 mps 751 mmHg 63%
07:00 +23°C° 0.1 mm 2 mps 752 mmHg 60%
08:00 +24°C° 0 mm 2 mps 752 mmHg 59%
09:00 +25°C° 0 mm 2 mps 752 mmHg 54%
10:00 +27°C° 0 mm 2 mps 752 mmHg 48%
11:00 +28°C° 0 mm 2 mps 752 mmHg 42%
12:00 +29°C° 0 mm 2 mps 752 mmHg 40%
13:00 +29°C° 0 mm 2 mps 751 mmHg 38%
14:00 +29°C° 0 mm 3 mps 751 mmHg 37%
15:00 +30°C° 0 mm 2 mps 751 mmHg 35%
16:00 +30°C° 0 mm 2 mps 751 mmHg 33%
17:00 +31°C° 0 mm 2 mps 751 mmHg 31%
18:00 +29°C° 0 mm 2 mps 751 mmHg 36%
19:00 +27°C° 0 mm 2 mps 751 mmHg 41%
20:00 +26°C° 0 mm 3 mps 751 mmHg 46%
21:00 +25°C° 0 mm 3 mps 751 mmHg 49%
22:00 +24°C° 0 mm 2 mps 752 mmHg 53%
23:00 +21°C° 0 mm 2 mps 752 mmHg 57%

Tomorrow, 25 July, Sunday

Time Temperature Precipitation Wind Pressure Humidity
00:00 +21°C° 0 mm 2 mps 752 mmHg 58%
01:00 +20°C° 0 mm 2 mps 752 mmHg 60%
02:00 +20°C° 0 mm 2 mps 752 mmHg 62%
03:00 +20°C° 0 mm 2 mps 752 mmHg 64%
04:00 +19°C° 0 mm 2 mps 752 mmHg 65%
05:00 +19°C° 0 mm 2 mps 752 mmHg 67%
06:00 +20°C° 0 mm 3 mps 753 mmHg 61%
07:00 +22°C° 0 mm 3 mps 753 mmHg 55%
08:00 +25°C° 0 mm 3 mps 753 mmHg 49%
09:00 +27°C° 0 mm 3 mps 753 mmHg 44%
10:00 +29°C° 0 mm 3 mps 753 mmHg 39%
11:00 +32°C° 0 mm 4 mps 753 mmHg 34%
12:00 +31°C° 0 mm 3 mps 753 mmHg 32%
13:00 +33°C° 0 mm 3 mps 752 mmHg 30%
14:00 +34°C° 0 mm 3 mps 752 mmHg 28%
15:00 +34°C° 0 mm 3 mps 752 mmHg 28%
16:00 +34°C° 0 mm 4 mps 752 mmHg 28%
17:00 +34°C° 0 mm 4 mps 751 mmHg 28%
18:00 +32°C° 0 mm 4 mps 751 mmHg 32%
19:00 +29°C° 0 mm 4 mps 751 mmHg 37%
20:00 +27°C° 0 mm 4 mps 752 mmHg 42%
21:00 +26°C° 0 mm 3 mps 752 mmHg 42%
22:00 +25°C° 0 mm 3 mps 752 mmHg 42%
23:00 +24°C° 0 mm 3 mps 752 mmHg 42%

Day after tomorrow, 26 July, Monday

Time Temperature Precipitation Wind Pressure Humidity
00:00 +22°C° 0 mm 3 mps 753 mmHg 44%
01:00 +22°C° 0 mm 3 mps 753 mmHg 47%
02:00 +21°C° 0 mm 3 mps 753 mmHg 49%
03:00 +20°C° 0 mm 3 mps 753 mmHg 52%
04:00 +20°C° 0 mm 3 mps 753 mmHg 55%
05:00 +20°C° 0 mm 3 mps 753 mmHg 58%
06:00 +21°C° 0 mm 3 mps 753 mmHg 54%
07:00 +23°C° 0 mm 4 mps 753 mmHg 50%
08:00 +26°C° 0 mm 4 mps 753 mmHg 46%
09:00 +28°C° 0 mm 4 mps 753 mmHg 41%
10:00 +30°C° 0 mm 4 mps 753 mmHg 36%
11:00 +33°C° 0 mm 4 mps 753 mmHg 31%
12:00 +34°C° 0 mm 4 mps 753 mmHg 29%
13:00 +35°C° 0 mm 3 mps 753 mmHg 27%
14:00 +36°C° 0 mm 3 mps 753 mmHg 25%
15:00 +36°C° 0 mm 3 mps 752 mmHg 25%
16:00 +36°C° 0 mm 3 mps 752 mmHg 25%
17:00 +36°C° 0 mm 3 mps 752 mmHg 25%
18:00 +34°C° 0 mm 3 mps 752 mmHg 29%
19:00 +31°C° 0 mm 3 mps 752 mmHg 33%
20:00 +29°C° 0 mm 3 mps 753 mmHg 38%
21:00 +29°C° 0 mm 3 mps 753 mmHg 38%
22:00 +28°C° 0 mm 3 mps 753 mmHg 39%
23:00 +27°C° 0 mm 3 mps 753 mmHg 39%

27 July, Tuesday

Time Temperature Precipitation Wind Pressure Humidity
00:00 +26°C° 0 mm 3 mps 753 mmHg 41%
01:00 +25°C° 0 mm 2 mps 753 mmHg 44%
02:00 +24°C° 0 mm 2 mps 753 mmHg 46%
03:00 +23°C° 0 mm 2 mps 753 mmHg 48%
04:00 +23°C° 0 mm 2 mps 754 mmHg 50%
05:00 +21°C° 0 mm 2 mps 754 mmHg 53%
06:00 +24°C° 0 mm 3 mps 754 mmHg 49%
07:00 +26°C° 0 mm 3 mps 754 mmHg 44%
08:00 +28°C° 0 mm 3 mps 754 mmHg 40%
09:00 +30°C° 0 mm 3 mps 754 mmHg 36%
10:00 +34°C° 0 mm 3 mps 754 mmHg 31%
11:00 +36°C° 0 mm 3 mps 754 mmHg 27%
12:00 +37°C° 0 mm 3 mps 753 mmHg 25%
13:00 +38°C° 0 mm 3 mps 753 mmHg 23%
14:00 +40°C° 0 mm 3 mps 752 mmHg 21%
15:00 +40°C° 0 mm 2 mps 752 mmHg 21%
16:00 +40°C° 0 mm 2 mps 752 mmHg 20%
17:00 +41°C° 0 mm 1 mps 751 mmHg 20%
18:00 +38°C° 0 mm 2 mps 751 mmHg 23%
19:00 +36°C° 0 mm 3 mps 751 mmHg 27%
20:00 +34°C° 0 mm 4 mps 751 mmHg 31%
21:00 +31°C° 0 mm 3 mps 751 mmHg 35%
22:00 +30°C° 0 mm 3 mps 751 mmHg 38%
23:00 +28°C° 0 mm 2 mps 751 mmHg 41%

28 July, Wednesday

Time Temperature Precipitation Wind Pressure Humidity
00:00 +27°C° 0 mm 2 mps 751 mmHg 44%
01:00 +27°C° 0 mm 3 mps 752 mmHg 47%
02:00 +26°C° 0 mm 3 mps 752 mmHg 50%
03:00 +25°C° 0 mm 3 mps 752 mmHg 52%
04:00 +25°C° 0 mm 3 mps 752 mmHg 54%
05:00 +24°C° 0 mm 3 mps 752 mmHg 55%
06:00 +26°C° 0 mm 3 mps 752 mmHg 50%
07:00 +28°C° 0 mm 3 mps 752 mmHg 45%
08:00 +30°C° 0 mm 3 mps 752 mmHg 39%
09:00 +32°C° 0 mm 2 mps 752 mmHg 35%
10:00 +35°C° 0 mm 2 mps 752 mmHg 31%
11:00 +37°C° 0 mm 2 mps 752 mmHg 26%
12:00 +39°C° 0 mm 2 mps 751 mmHg 24%
13:00 +40°C° 0 mm 2 mps 751 mmHg 21%
14:00 +42°C° 0 mm 2 mps 750 mmHg 19%
15:00 +42°C° 0 mm 2 mps 750 mmHg 17%
16:00 +44°C° 0 mm 3 mps 749 mmHg 16%
17:00 +44°C° 0 mm 3 mps 749 mmHg 14%
18:00 +42°C° 0 mm 3 mps 749 mmHg 16%
19:00 +39°C° 0 mm 2 mps 749 mmHg 19%
20:00 +36°C° 0 mm 2 mps 749 mmHg 21%
21:00 +35°C° 0 mm 2 mps 749 mmHg 25%
22:00 +33°C° 0 mm 3 mps 749 mmHg 29%
23:00 +30°C° 0 mm 3 mps 750 mmHg 33%

29 July, Thursday

Time Temperature Precipitation Wind Pressure Humidity
00:00 +29°C° 0 mm 3 mps 749 mmHg 39%
01:00 +28°C° 0 mm 3 mps 749 mmHg 45%
02:00 +26°C° 0 mm 3 mps 749 mmHg 51%
03:00 +26°C° 0 mm 3 mps 749 mmHg 53%
04:00 +25°C° 0 mm 3 mps 749 mmHg 54%
05:00 +24°C° 0 mm 2 mps 749 mmHg 56%
06:00 +27°C° 0 mm 2 mps 750 mmHg 50%
07:00 +29°C° 0 mm 2 mps 750 mmHg 44%
08:00 +31°C° 0 mm 1 mps 750 mmHg 38%
09:00 +34°C° 0 mm 1 mps 750 mmHg 33%
10:00 +36°C° 0 mm 1 mps 750 mmHg 28%
11:00 +40°C° 0 mm 1 mps 750 mmHg 23%
12:00 +41°C° 0 mm 2 mps 749 mmHg 20%
13:00 +43°C° 0 mm 2 mps 749 mmHg 17%
14:00 +45°C° 0 mm 3 mps 748 mmHg 14%
15:00 +44°C° 0 mm 3 mps 748 mmHg 16%
16:00 +43°C° 0 mm 4 mps 748 mmHg 17%
17:00 +41°C° 0 mm 4 mps 747 mmHg 19%
18:00 +37°C° 0 mm 4 mps 747 mmHg 26%
19:00 +34°C° 0 mm 4 mps 748 mmHg 33%
20:00 +30°C° 0 mm 3 mps 748 mmHg 40%
21:00 +29°C° 0 mm 3 mps 748 mmHg 43%
22:00 +28°C° 0 mm 2 mps 749 mmHg 46%
23:00 +27°C° 0 mm 2 mps 749 mmHg 50%
Show more